User: anonymous   Login
Location: Eitze
(52.9840°N, 9.6894°E)
Time: 08:25:13
(UTC+00:00)
Language:

Cosmos 2333 Rocket - Orbit

View from above orbital plane
View from above orbital plane
View from above satellite
View from above satellite

Ground track
Ground track

The orbit is defined by the following mean orbital elements,

1 24298U          26128.15971375 +.00000000 +00000-0 +92642-4 0 00002
2 24298  70.7627  49.3643 0012719  43.3527 316.8590 14.12431860    01
Epoch (UTC): 08 May 2026 03:49:59
Eccentricity: 0.0012719
inclination: 70.7627°
perigee height: 842 km
apogee height: 860 km
right ascension of ascending node: 49.3643°
argument of perigee: 43.3527°
revolutions per day: 14.12431860
mean anomaly at epoch: 316.8590°

The dashed part of the orbit path shows where the satellite is in the earth's shadow,  

DLR